Time,TemperatureF,DewpointF,PressureIn,WindDirection,WindDirectionDegrees,WindSpeedMPH,WindSpeedGustMPH,Humidity,HourlyPrecipIn,Conditions,Clouds,dailyrainin,SoftwareType,DateUTC
2013-06-28 00:00:00,54.3,52.0,30.16,East,89,1.0,22.0,92,0.00,,,0.00,Wunderground v.1.15,2013-06-28 03:00:00,
2013-06-28 00:10:00,54.2,52.2,30.15,ENE,73,1.0,1.0,93,0.00,,,0.00,Wunderground v.1.15,2013-06-28 03:10:00,
2013-06-28 00:20:00,54.3,52.3,30.15,ESE,113,1.0,22.0,93,0.00,,,0.00,Wunderground v.1.15,2013-06-28 03:20:00,
2013-06-28 00:30:00,54.0,52.0,30.16,ENE,57,2.0,22.0,93,0.00,,,0.00,Wunderground v.1.15,2013-06-28 03:30:00,
2013-06-28 00:40:00,53.8,51.8,30.16,ESE,112,1.0,22.0,93,0.00,,,0.00,Wunderground v.1.15,2013-06-28 03:40:00,
2013-06-28 00:50:00,53.8,51.8,30.16,ESE,111,2.0,22.0,93,0.00,,,0.00,Wunderground v.1.15,2013-06-28 03:50:00,
2013-06-28 01:00:00,53.7,51.7,30.16,East,86,1.0,22.0,93,0.00,,,0.00,Wunderground v.1.15,2013-06-28 04:00:00,
2013-06-28 01:10:00,53.7,51.7,30.15,East,94,2.0,2.0,93,0.00,,,0.00,Wunderground v.1.15,2013-06-28 04:10:00,
2013-06-28 01:20:00,53.7,52.0,30.15,East,95,1.0,1.0,94,0.00,,,0.00,Wunderground v.1.15,2013-06-28 04:20:00,
2013-06-28 01:30:00,53.9,52.2,30.14,East,87,1.0,22.0,94,0.00,,,0.00,Wunderground v.1.15,2013-06-28 04:30:00,
2013-06-28 01:40:00,53.9,51.9,30.14,SSE,156,1.0,22.0,93,0.00,,,0.00,Wunderground v.1.15,2013-06-28 04:40:00,
2013-06-28 01:50:00,53.9,51.9,30.14,ESE,116,2.0,2.0,93,0.00,,,0.00,Wunderground v.1.15,2013-06-28 04:50:00,
2013-06-28 02:00:00,54.0,52.0,30.14,ESE,107,1.0,22.0,93,0.00,,,0.00,Wunderground v.1.15,2013-06-28 05:00:00,
2013-06-28 02:10:00,53.9,51.9,30.14,NNE,27,2.0,22.0,93,0.00,,,0.00,Wunderground v.1.15,2013-06-28 05:10:00,
2013-06-28 02:20:00,54.0,52.0,30.14,ENE,72,1.0,22.0,93,0.00,,,0.00,Wunderground v.1.15,2013-06-28 05:20:00,
2013-06-28 02:30:00,53.9,51.9,30.15,East,83,2.0,2.0,93,0.00,,,0.00,Wunderground v.1.15,2013-06-28 05:30:00,
2013-06-28 02:40:00,53.9,51.9,30.15,NE,55,1.0,1.0,93,0.00,,,0.00,Wunderground v.1.15,2013-06-28 05:40:00,
2013-06-28 02:50:00,53.8,51.8,30.14,ESE,102,1.0,22.0,93,0.00,,,0.00,Wunderground v.1.15,2013-06-28 05:50:00,
2013-06-28 03:00:00,53.7,51.7,30.14,ESE,105,1.0,22.0,93,0.00,,,0.00,Wunderground v.1.15,2013-06-28 06:00:00,
2013-06-28 03:10:00,53.8,51.8,30.14,East,92,1.0,22.0,93,0.00,,,0.00,Wunderground v.1.15,2013-06-28 06:10:00,
2013-06-28 03:20:00,53.6,51.6,30.14,ESE,119,1.0,22.0,93,0.00,,,0.00,Wunderground v.1.15,2013-06-28 06:20:00,
2013-06-28 03:30:00,53.7,51.7,30.15,SW,236,1.0,1.0,93,0.00,,,0.00,Wunderground v.1.15,2013-06-28 06:30:00,
2013-06-28 03:40:00,53.7,51.7,30.14,ENE,71,1.0,1.0,93,0.00,,,0.00,Wunderground v.1.15,2013-06-28 06:40:00,
2013-06-28 03:50:00,53.7,51.7,30.14,ESE,122,1.0,22.0,93,0.00,,,0.00,Wunderground v.1.15,2013-06-28 06:50:00,
2013-06-28 04:00:00,53.5,51.2,30.14,East,82,2.0,2.0,92,0.00,,,0.00,Wunderground v.1.15,2013-06-28 07:00:00,
2013-06-28 04:10:00,53.4,51.1,30.14,ENE,71,2.0,22.0,92,0.00,,,0.00,Wunderground v.1.15,2013-06-28 07:10:00,
2013-06-28 04:20:00,53.4,51.1,30.15,ENE,77,2.0,22.0,92,0.00,,,0.00,Wunderground v.1.15,2013-06-28 07:20:00,
2013-06-28 04:30:00,53.4,51.1,30.15,East,93,1.0,22.0,92,0.00,,,0.00,Wunderground v.1.15,2013-06-28 07:30:00,
2013-06-28 04:40:00,53.5,51.5,30.15,East,81,1.0,22.0,93,0.00,,,0.00,Wunderground v.1.15,2013-06-28 07:40:00,
2013-06-28 04:50:00,53.5,51.5,30.15,East,97,1.0,22.0,93,0.00,,,0.00,Wunderground v.1.15,2013-06-28 07:50:00,
2013-06-28 05:00:00,53.5,51.5,30.15,ENE,71,1.0,22.0,93,0.00,,,0.00,Wunderground v.1.15,2013-06-28 08:00:00,
2013-06-28 05:10:00,53.5,51.2,30.15,East,85,1.0,22.0,92,0.00,,,0.00,Wunderground v.1.15,2013-06-28 08:10:00,
2013-06-28 05:20:00,53.4,51.1,30.15,ENE,78,2.0,2.0,92,0.00,,,0.00,Wunderground v.1.15,2013-06-28 08:20:00,
2013-06-28 05:30:00,53.4,51.1,30.15,East,100,2.0,2.0,92,0.00,,,0.00,Wunderground v.1.15,2013-06-28 08:30:00,
2013-06-28 05:40:00,53.3,51.3,30.15,East,92,1.0,22.0,93,0.00,,,0.00,Wunderground v.1.15,2013-06-28 08:40:00,
2013-06-28 05:50:00,53.3,51.3,30.15,East,81,1.0,22.0,93,0.00,,,0.00,Wunderground v.1.15,2013-06-28 08:50:00,
2013-06-28 06:00:00,53.3,51.6,30.15,ESE,122,1.0,22.0,94,0.00,,,0.00,Wunderground v.1.15,2013-06-28 09:00:00,
2013-06-28 06:10:00,53.1,51.4,30.15,NE,54,2.0,2.0,94,0.00,,,0.00,Wunderground v.1.15,2013-06-28 09:10:00,
2013-06-28 06:20:00,53.0,51.3,30.15,ENE,77,1.0,22.0,94,0.00,,,0.00,Wunderground v.1.15,2013-06-28 09:20:00,
2013-06-28 06:30:00,53.1,51.7,30.15,ENE,77,1.0,22.0,95,0.00,,,0.00,Wunderground v.1.15,2013-06-28 09:30:00,
2013-06-28 06:40:00,53.2,51.8,30.15,East,81,1.0,22.0,95,0.00,,,0.00,Wunderground v.1.15,2013-06-28 09:40:00,
2013-06-28 06:50:00,53.3,51.9,30.15,East,99,1.0,22.0,95,0.00,,,0.00,Wunderground v.1.15,2013-06-28 09:50:00,
2013-06-28 07:00:00,53.5,52.1,30.14,East,94,1.0,22.0,95,0.00,,,0.00,Wunderground v.1.15,2013-06-28 10:00:00,
2013-06-28 07:10:00,53.7,52.3,30.15,East,92,1.0,22.0,95,0.00,,,0.00,Wunderground v.1.15,2013-06-28 10:10:00,
2013-06-28 07:20:00,53.6,52.2,30.15,ENE,78,2.0,2.0,95,0.00,,,0.00,Wunderground v.1.15,2013-06-28 10:20:00,
2013-06-28 07:30:00,53.7,52.3,30.16,East,93,2.0,22.0,95,0.00,,,0.00,Wunderground v.1.15,2013-06-28 10:30:00,
2013-06-28 07:40:00,53.8,52.4,30.16,ENE,72,1.0,22.0,95,0.00,,,0.00,Wunderground v.1.15,2013-06-28 10:40:00,
2013-06-28 07:50:00,53.9,52.2,30.15,ESE,109,2.0,2.0,94,0.00,,,0.00,Wunderground v.1.15,2013-06-28 10:50:00,
2013-06-28 08:00:00,54.5,52.8,30.14,East,101,1.0,22.0,94,0.00,,,0.00,Wunderground v.1.15,2013-06-28 11:00:00,
2013-06-28 08:10:00,54.4,52.4,30.15,East,79,2.0,22.0,93,0.00,,,0.00,Wunderground v.1.15,2013-06-28 11:10:00,
2013-06-28 08:20:00,54.5,52.5,30.15,East,79,3.0,3.0,93,0.00,,,0.00,Wunderground v.1.15,2013-06-28 11:20:00,
2013-06-28 08:30:00,54.7,52.4,30.15,East,91,2.0,22.0,92,0.00,,,0.00,Wunderground v.1.15,2013-06-28 11:30:00,
2013-06-28 08:40:00,55.1,52.8,30.15,ENE,68,2.0,22.0,92,0.00,,,0.00,Wunderground v.1.15,2013-06-28 11:40:00,
2013-06-28 08:50:00,55.3,53.0,30.15,East,90,1.0,22.0,92,0.00,,,0.00,Wunderground v.1.15,2013-06-28 11:50:00,
2013-06-28 09:00:00,55.5,53.2,30.15,East,86,1.0,1.0,92,0.00,,,0.00,Wunderground v.1.15,2013-06-28 12:00:00,
2013-06-28 09:10:00,55.8,53.5,30.14,ENE,62,1.0,22.0,92,0.00,,,0.00,Wunderground v.1.15,2013-06-28 12:10:00,
2013-06-28 09:20:00,56.4,54.1,30.14,ENE,58,1.0,22.0,92,0.00,,,0.00,Wunderground v.1.15,2013-06-28 12:20:00,
2013-06-28 09:30:00,56.4,54.1,30.14,ENE,77,2.0,2.0,92,0.00,,,0.00,Wunderground v.1.15,2013-06-28 12:30:00,
2013-06-28 09:40:00,56.6,54.0,30.14,ENE,71,3.0,22.0,91,0.00,,,0.00,Wunderground v.1.15,2013-06-28 12:40:00,
2013-06-28 09:50:00,57.2,54.9,30.14,ENE,68,2.0,22.0,92,0.00,,,0.00,Wunderground v.1.15,2013-06-28 12:50:00,
2013-06-28 10:00:00,57.1,54.8,30.14,ENE,67,3.0,3.0,92,0.00,,,0.00,Wunderground v.1.15,2013-06-28 13:00:00,
2013-06-28 10:10:00,57.8,55.5,30.14,East,94,2.0,2.0,92,0.00,,,0.00,Wunderground v.1.15,2013-06-28 13:10:00,
2013-06-28 10:20:00,57.8,55.2,30.14,ENE,68,2.0,22.0,91,0.00,,,0.00,Wunderground v.1.15,2013-06-28 13:20:00,
2013-06-28 10:30:00,57.6,55.3,30.14,East,95,3.0,22.0,92,0.00,,,0.00,Wunderground v.1.15,2013-06-28 13:30:00,
2013-06-28 10:40:00,57.8,55.8,30.14,ESE,119,2.0,2.0,93,0.00,,,0.00,Wunderground v.1.15,2013-06-28 13:40:00,
2013-06-28 10:50:00,57.9,55.6,30.14,ESE,106,1.0,22.0,92,0.00,,,0.00,Wunderground v.1.15,2013-06-28 13:50:00,
2013-06-28 11:00:00,57.8,55.5,30.14,East,90,3.0,3.0,92,0.00,,,0.00,Wunderground v.1.15,2013-06-28 14:00:00,
2013-06-28 11:10:00,58.0,55.7,30.13,NE,44,2.0,22.0,92,0.00,,,0.00,Wunderground v.1.15,2013-06-28 14:10:00,
2013-06-28 11:20:00,58.1,56.1,30.13,East,84,2.0,2.0,93,0.00,,,0.00,Wunderground v.1.15,2013-06-28 14:20:00,
2013-06-28 11:30:00,58.2,56.2,30.13,ENE,61,1.0,22.0,93,0.00,,,0.00,Wunderground v.1.15,2013-06-28 14:30:00,
2013-06-28 11:40:00,58.2,56.5,30.13,ESE,103,2.0,2.0,94,0.00,,,0.00,Wunderground v.1.15,2013-06-28 14:40:00,
2013-06-28 11:50:00,58.3,56.6,30.13,ENE,66,2.0,22.0,94,0.00,,,0.00,Wunderground v.1.15,2013-06-28 14:50:00,
2013-06-28 12:00:00,58.6,56.9,30.12,NNE,30,2.0,22.0,94,0.00,,,0.00,Wunderground v.1.15,2013-06-28 15:00:00,
2013-06-28 12:10:00,59.2,57.2,30.12,ENE,65,2.0,22.0,93,0.00,,,0.00,Wunderground v.1.15,2013-06-28 15:10:00,
2013-06-28 12:20:00,59.8,57.2,30.10,ENE,60,4.0,4.0,91,0.00,,,0.00,Wunderground v.1.15,2013-06-28 15:20:00,
2013-06-28 12:30:00,60.0,57.1,30.12,NE,53,7.0,22.0,90,0.00,,,0.00,Wunderground v.1.15,2013-06-28 15:30:00,
2013-06-28 12:40:00,60.3,57.4,30.11,ESE,111,5.0,5.0,90,0.00,,,0.00,Wunderground v.1.15,2013-06-28 15:40:00,
2013-06-28 12:50:00,60.8,57.5,30.11,East,94,5.0,22.0,89,0.00,,,0.00,Wunderground v.1.15,2013-06-28 15:50:00,
2013-06-28 13:00:00,61.1,57.5,30.11,ENE,60,3.0,22.0,88,0.00,,,0.00,Wunderground v.1.15,2013-06-28 16:00:00,
2013-06-28 13:10:00,61.0,57.4,30.11,East,98,4.0,22.0,88,0.00,,,0.00,Wunderground v.1.15,2013-06-28 16:10:00,
2013-06-28 13:20:00,60.8,57.2,30.10,East,83,6.0,6.0,88,0.00,,,0.00,Wunderground v.1.15,2013-06-28 16:20:00,
2013-06-28 13:30:00,60.9,57.3,30.10,East,83,4.0,22.0,88,0.00,,,0.00,Wunderground v.1.15,2013-06-28 16:30:00,
2013-06-28 13:40:00,60.5,56.9,30.10,ENE,75,7.0,7.0,88,0.00,,,0.00,Wunderground v.1.15,2013-06-28 16:40:00,
2013-06-28 13:50:00,60.6,57.0,30.09,East,79,4.0,22.0,88,0.00,,,0.00,Wunderground v.1.15,2013-06-28 16:50:00,
2013-06-28 14:00:00,60.4,56.5,30.10,East,93,5.0,22.0,87,0.00,,,0.00,Wunderground v.1.15,2013-06-28 17:00:00,
2013-06-28 14:10:00,60.2,56.6,30.09,East,87,5.0,5.0,88,0.00,,,0.00,Wunderground v.1.15,2013-06-28 17:10:00,
2013-06-28 14:20:00,60.2,56.3,30.09,ENE,72,6.0,22.0,87,0.00,,,0.00,Wunderground v.1.15,2013-06-28 17:20:00,
2013-06-28 14:30:00,60.1,56.2,30.07,East,100,7.0,7.0,87,0.00,,,0.00,Wunderground v.1.15,2013-06-28 17:30:00,
2013-06-28 14:40:00,60.3,56.7,30.09,East,80,5.0,5.0,88,0.00,,,0.00,Wunderground v.1.15,2013-06-28 17:40:00,
2013-06-28 14:50:00,60.3,56.4,30.09,ENE,61,5.0,22.0,87,0.00,,,0.00,Wunderground v.1.15,2013-06-28 17:50:00,
2013-06-28 15:00:00,60.3,56.7,30.06,East,80,5.0,22.0,88,0.00,,,0.00,Wunderground v.1.15,2013-06-28 18:00:00,
2013-06-28 15:10:00,60.2,56.9,30.08,NNE,32,5.0,22.0,89,0.00,,,0.00,Wunderground v.1.15,2013-06-28 18:10:00,
2013-06-28 15:20:00,60.1,56.5,30.08,East,80,5.0,22.0,88,0.00,,,0.00,Wunderground v.1.15,2013-06-28 18:20:00,
2013-06-28 15:30:00,60.1,56.5,30.05,ENE,72,5.0,5.0,88,0.00,,,0.00,Wunderground v.1.15,2013-06-28 18:30:00,
2013-06-28 15:40:00,59.8,56.2,30.08,ENE,73,6.0,6.0,88,0.00,,,0.00,Wunderground v.1.15,2013-06-28 18:40:00,
2013-06-28 15:50:00,59.7,56.1,30.08,ENE,62,5.0,22.0,88,0.00,,,0.00,Wunderground v.1.15,2013-06-28 18:50:00,
2013-06-28 16:00:00,59.6,56.0,30.08,ENE,75,5.0,5.0,88,0.00,,,0.00,Wunderground v.1.15,2013-06-28 19:00:00,
2013-06-28 16:10:00,59.3,56.1,30.05,East,94,6.0,6.0,89,0.00,,,0.00,Wunderground v.1.15,2013-06-28 19:10:00,
2013-06-28 16:20:00,59.0,56.1,30.08,East,80,5.0,22.0,90,0.00,,,0.00,Wunderground v.1.15,2013-06-28 19:20:00,
2013-06-28 16:30:00,58.8,56.2,30.07,ENE,68,6.0,22.0,91,0.00,,,0.00,Wunderground v.1.15,2013-06-28 19:30:00,
2013-06-28 16:40:00,58.6,56.3,30.07,NE,53,5.0,5.0,92,0.00,,,0.01,Wunderground v.1.15,2013-06-28 19:40:00,
2013-06-28 16:50:00,58.3,56.3,30.07,NE,37,4.0,4.0,93,0.15,,,0.03,Wunderground v.1.15,2013-06-28 19:50:00,
2013-06-28 17:00:00,57.8,55.8,30.07,NE,39,6.0,6.0,93,0.14,,,0.05,Wunderground v.1.15,2013-06-28 20:00:00,
2013-06-28 17:10:00,57.5,55.8,30.07,ENE,71,5.0,22.0,94,0.12,,,0.07,Wunderground v.1.15,2013-06-28 20:10:00,
2013-06-28 17:20:00,57.4,56.0,30.07,ESE,104,5.0,5.0,95,0.10,,,0.08,Wunderground v.1.15,2013-06-28 20:20:00,
2013-06-28 17:30:00,57.2,55.8,30.07,East,86,4.0,4.0,95,0.15,,,0.10,Wunderground v.1.15,2013-06-28 20:30:00,
2013-06-28 17:40:00,56.9,55.5,30.06,East,98,4.0,4.0,95,0.51,,,0.17,Wunderground v.1.15,2013-06-28 20:40:00,
2013-06-28 17:50:00,56.8,55.4,30.06,ENE,70,4.0,22.0,95,0.09,,,0.20,Wunderground v.1.15,2013-06-28 20:50:00,
2013-06-28 18:00:00,56.8,55.4,30.06,ENE,73,4.0,22.0,95,0.06,,,0.20,Wunderground v.1.15,2013-06-28 21:00:00,
2013-06-28 18:10:00,56.7,55.3,30.06,ENE,58,5.0,22.0,95,0.05,,,0.21,Wunderground v.1.15,2013-06-28 21:10:00,
2013-06-28 18:20:00,56.7,55.3,30.05,ENE,72,4.0,4.0,95,0.25,,,0.23,Wunderground v.1.15,2013-06-28 21:20:00,
2013-06-28 18:30:00,56.7,55.6,30.05,ENE,77,4.0,22.0,96,0.26,,,0.29,Wunderground v.1.15,2013-06-28 21:30:00,
2013-06-28 18:40:00,56.4,55.0,30.05,ESE,103,6.0,6.0,95,0.09,,,0.30,Wunderground v.1.15,2013-06-28 21:40:00,
2013-06-28 18:50:00,56.4,55.0,30.05,East,79,5.0,5.0,95,0.07,,,0.31,Wunderground v.1.15,2013-06-28 21:50:00,
2013-06-28 19:00:00,56.2,54.8,30.05,ESE,121,5.0,5.0,95,0.00,,,0.31,Wunderground v.1.15,2013-06-28 22:00:00,
2013-06-28 19:10:00,56.0,54.6,30.05,East,82,5.0,5.0,95,0.00,,,0.31,Wunderground v.1.15,2013-06-28 22:10:00,
2013-06-28 19:20:00,55.8,54.4,30.05,ENE,76,5.0,22.0,95,0.00,,,0.31,Wunderground v.1.15,2013-06-28 22:20:00,
2013-06-28 19:30:00,55.5,54.1,30.04,NNE,22,6.0,6.0,95,0.00,,,0.31,Wunderground v.1.15,2013-06-28 22:30:00,
2013-06-28 19:40:00,55.5,54.1,30.04,ENE,72,4.0,4.0,95,0.00,,,0.31,Wunderground v.1.15,2013-06-28 22:40:00,
2013-06-28 19:50:00,55.4,54.0,30.04,East,84,5.0,22.0,95,0.00,,,0.31,Wunderground v.1.15,2013-06-28 22:50:00,
2013-06-28 20:00:00,55.2,53.8,30.03,ENE,65,6.0,22.0,95,0.00,,,0.31,Wunderground v.1.15,2013-06-28 23:00:00,
2013-06-28 20:10:00,55.2,53.8,30.03,East,93,7.0,7.0,95,0.00,,,0.31,Wunderground v.1.15,2013-06-28 23:10:00,
2013-06-28 20:20:00,55.1,53.7,30.03,NE,54,5.0,5.0,95,0.00,,,0.31,Wunderground v.1.15,2013-06-28 23:20:00,
2013-06-28 20:30:00,55.1,53.7,30.02,ENE,71,4.0,22.0,95,0.00,,,0.32,Wunderground v.1.15,2013-06-28 23:30:00,
2013-06-28 20:40:00,55.1,54.0,30.02,ENE,68,6.0,6.0,96,0.00,,,0.32,Wunderground v.1.15,2013-06-28 23:40:00,
2013-06-28 20:50:00,55.0,53.9,30.02,East,79,5.0,22.0,96,0.00,,,0.32,Wunderground v.1.15,2013-06-28 23:50:00,
2013-06-28 21:00:00,55.0,53.9,30.02,East,81,5.0,22.0,96,0.00,,,0.33,Wunderground v.1.15,2013-06-29 00:00:00,
2013-06-28 21:10:00,55.0,53.9,30.01,ENE,65,5.0,22.0,96,0.00,,,0.33,Wunderground v.1.15,2013-06-29 00:10:00,
2013-06-28 21:20:00,55.1,54.0,30.01,NE,56,4.0,22.0,96,0.00,,,0.33,Wunderground v.1.15,2013-06-29 00:20:00,
2013-06-28 21:30:00,55.2,54.1,30.01,ESE,103,5.0,22.0,96,0.00,,,0.34,Wunderground v.1.15,2013-06-29 00:30:00,
2013-06-28 21:40:00,55.3,54.2,30.00,ENE,66,6.0,6.0,96,0.40,,,0.37,Wunderground v.1.15,2013-06-29 00:40:00,
2013-06-28 21:50:00,55.3,54.2,30.00,East,95,6.0,6.0,96,0.11,,,0.39,Wunderground v.1.15,2013-06-29 00:50:00,
2013-06-28 22:00:00,55.4,54.3,30.00,ENE,72,5.0,5.0,96,0.18,,,0.40,Wunderground v.1.15,2013-06-29 01:00:00,
2013-06-28 22:10:00,55.5,54.4,29.99,East,83,4.0,4.0,96,0.09,,,0.42,Wunderground v.1.15,2013-06-29 01:10:00,
2013-06-28 22:20:00,55.6,54.5,29.99,ENE,76,5.0,22.0,96,0.09,,,0.43,Wunderground v.1.15,2013-06-29 01:20:00,
2013-06-28 22:30:00,55.8,54.7,29.99,ESE,104,5.0,5.0,96,0.06,,,0.43,Wunderground v.1.15,2013-06-29 01:30:00,
2013-06-28 22:40:00,55.9,54.8,29.99,ESE,117,4.0,22.0,96,0.00,,,0.43,Wunderground v.1.15,2013-06-29 01:40:00,
2013-06-28 22:50:00,56.1,55.0,29.99,East,100,3.0,3.0,96,0.00,,,0.43,Wunderground v.1.15,2013-06-29 01:50:00,
2013-06-28 23:00:00,56.2,55.1,29.99,ENE,75,4.0,22.0,96,0.95,,,0.50,Wunderground v.1.15,2013-06-29 02:00:00,
2013-06-28 23:10:00,56.2,55.1,29.97,SE,126,4.0,22.0,96,0.21,,,0.57,Wunderground v.1.15,2013-06-29 02:10:00,
2013-06-28 23:20:00,56.2,55.1,29.97,ENE,66,4.0,22.0,96,0.10,,,0.57,Wunderground v.1.15,2013-06-29 02:20:00,
2013-06-28 23:30:00,56.3,55.2,29.97,ESE,108,4.0,4.0,96,0.05,,,0.58,Wunderground v.1.15,2013-06-29 02:30:00,
2013-06-28 23:40:00,56.4,55.6,29.97,SE,129,3.0,22.0,97,0.09,,,0.60,Wunderground v.1.15,2013-06-29 02:40:00,
2013-06-28 23:50:00,56.5,55.7,29.97,ESE,113,4.0,4.0,97,0.04,,,0.60,Wunderground v.1.15,2013-06-29 02:50:00,